Current weather by "City, St" or "zip code"  
 
Advertise Here

Current Conditions: Altus, Altus/Quartz Mountain Regional Airport, OK

Partly Cloudy


39.0 F

Last Updated on Jan 27 2021, 12:55 pm CST
Humidity: 57%
Wind Speed: N 15.0 G 20.7 mph
Barometer 30.44 in
Dewpoint: 25.3 F
Visibility: 10.00 mi
Precip: --
Heat Index: NA
Wind Chill: 31 F
Current conditions at:

Altus, Altus/Quartz Mountain Regional Airport, OK (KAXS)

Lat: 34.69861 Lon: 99.33806

Local Radar Image active severe weather and emergency alerts image image weather storm and storm spotter reports image weather observation monitoring service image
Local
Radar
Active
Alerts
Storm Reports Obs
Monitoring

Sign-up For Email & Text Message Weather Alert Notification Services


Advertise Here

Observation History for Altus, Altus/Quartz Mountain Regional Airport, OK


Time Wind
(mph)
Vis
(mi)
Weather Precip (in) Temperature (F) Relative
Humidity
Wind
Chill
(F)
Heat
Index
(F)
Pressure
Air Dwpt altimeter
(in)
sea level
(mb)
Rmks
12:55 pm CST N 15.0 G 20.7 10.00 Partly Cloudy -- 39.0 25.3 57% 31 NA 30.44 M
11:55 am CST N 12.7 10.00 Overcast -- 36.0 26.2 68% 28 NA 30.47 M
10:55 am CST NW 13.8 10.00 Overcast -- 35.0 26.8 73% 26 NA 30.45 M
10:35 am CST N 15.0 10.00 Overcast -- 35.0 27.3 74% 25 NA 30.44 M
9:55 am CST N 16.1 10.00 Partly Cloudy -- 33.0 27.3 79% 22 NA 30.41 M
8:55 am CST N 9.2 7.00 Overcast -- 31.0 27.7 87% 23 NA 30.36 M
8:35 am CST N 5.8 5.00 Fog/Mist -- 30.0 26.6 88% 24 NA 30.35 M
7:55 am CST N 11.5 5.00 Fog/Mist -- 28.0 26.1 91% 18 NA 30.32 M
6:55 am CST N 5.8 4.00 Fog/Mist -- 26.0 23.4 92% 19 NA 30.27 M
5:55 am CST N 4.6 5.00 Fog/Mist -- 26.0 23.9 90% 20 NA 30.23 M
4:55 am CST N 5.8 5.00 Fog/Mist -- 27.0 24.1 90% 20 NA 30.21 M
3:55 am CST N 3.5 7.00 Fair -- 28.0 24.8 90% NA NA 30.18 M
2:55 am CST N 0.0 7.00 Fair -- 27.0 24.3 88% NA NA 30.17 M
1:55 am CST N 6.9 10.00 Fair -- 29.0 25.2 86% 22 NA 30.14 M
12:55 am CST NE 8.1 10.00 Fair -- 30.0 25.3 82% 22 NA 30.13 M
11:55 pm CST NE 4.6 10.00 Fair -- 32.0 26.1 79% 27 NA 30.11 M
10:55 pm CST E 11.5 10.00 Fair -- 32.0 25.9 78% 23 NA 30.08 M
9:55 pm CST E 9.2 10.00 Partly Cloudy -- 32.0 26.1 79% 24 NA 30.07 M
8:55 pm CST NE 10.4 10.00 Partly Cloudy -- 33.0 26.2 78% 25 NA 30.08 M
7:55 pm CST NE 9.2 10.00 Fair -- 34.0 26.4 74% 27 NA 30.05 M
6:55 pm CST NE 8.1 10.00 Fair -- 34.0 26.6 74% 27 NA 30.02 M
5:55 pm CST NE 6.9 10.00 Fair -- 37.0 26.4 65% 32 NA 30.00 M
4:55 pm CST NE 6.9 10.00 Fair -- 40.0 26.2 57% 35 NA 29.99 M
3:55 pm CST NE 6.9 10.00 Fair -- 42.0 25.9 53% 38 NA 29.97 M

Regional Weather Observation


Altus, Altus/Quartz Mountain Regional Airport, OK (KAXS)

Partly Cloudy
39.0 F

Altus Air Force Base, OK (KLTS)

Mostly Cloudy
35.0 F

Clinton, Clinton-Sherman Airport, OK (KCSM)

Fair
34.0 F

Elk City Regional Business Airport, OK (KELK)

Fair
34.0 F

Vernon, Wilbarger County Airport, TX (KF05)

Mostly Cloudy
40.0 F

Frederick, Frederick Municipal Airport, OK (KFDR)

Mostly Cloudy
40.0 F